This demonstration page uses our WeatherBlox Daily Observations layout. Learn more.

Left ArrowRight Arrow

41.55636, -103.73856

Hourly Observations for October 13, 2021

Temp ( °F °C ) Dew Point ( °F °C ) Humidity (%) Winds ( mph kmh ) Pressure ( in mb ) Visibility ( mi km ) Precip ( " mm )
12:58 am 00:58 Mostly Cloudy with Light Snow 31 -0.7 29 -1.8 92 92 NW 37 59 29.51 999 4 6 0.02 0.51
1:58 am 01:58 Windy with Snow Likely 31 -0.5 28 -2.5 87 87 WNW 32 52 29.54 1000 10 16 0.00 0.00
2:58 am 02:58 Windy with Snow Showers Likely 30 -0.9 28 -2.1 92 92 WNW 33 54 29.54 1000 3 4 0.00 0.00
3:58 am 03:58 Windy with Snow Likely 31 -0.8 29 -1.8 93 93 WNW 32 52 29.57 1001 2 2 0.00 0.00
4:58 am 04:58 Windy with Snow Likely 31 -0.4 29 -1.6 92 92 WNW 31 50 29.60 1003 3 4 0.00 0.00
5:58 am 05:58 Windy with Snow Likely 31 -0.3 30 -1.3 93 93 WNW 29 46 29.64 1004 3 5 0.00 0.00
6:58 am 06:58 Cloudy with Light Snow 31 -0.3 30 -1.2 94 94 WNW 18 30 29.66 1004 5 8 0.01 0.25
7:58 am 07:58 Cloudy 33 0.8 26 -3.1 75 75 WNW 25 41 29.69 1005 10 16 0.02 0.51
8:58 am 08:58 Mostly Sunny 36 2.1 27 -2.8 70 70 WNW 36 57 29.72 1006 10 16 0.05 1.27
9:58 am 09:58 Sunny 36 2 28 -2.4 73 73 WNW 30 48 29.74 1007 10 16 0.05 1.27
10:58 am 10:58 Sunny 35 1.8 28 -2.4 74 74 NW 31 50 29.77 1008 10 16 0.00 0.00
11:58 am 11:58 Sunny 37 3 29 -1.7 72 72 NW 22 35 29.81 1010 10 16 0.00 0.00
12:58 pm 12:58 Sunny 40 4.4 31 -0.8 69 69 NW 26 43 29.80 1009 10 16 0.00 0.00
1:58 pm 13:58 Sunny 42 5.8 31 -0.6 64 64 NW 26 43 29.79 1009 10 16 0.00 0.00
2:58 pm 14:58 Sunny 45 7 29 -1.7 54 54 NW 25 41 29.82 1010 10 16 0.00 0.00
3:58 pm 15:58 Mostly Sunny 46 7.9 24 -4.5 42 42 NW 38 61 29.85 1011 10 16 0.00 0.00
4:58 pm 16:58 Sunny 45 7.4 24 -4.7 42 42 WNW 32 52 29.87 1012 10 16 0.00 0.00
5:58 pm 17:58 Sunny 43 6.3 24 -4.7 46 46 NW 29 46 29.88 1012 10 16 0.00 0.00
6:58 pm 18:58 Clear 40 4.2 25 -3.7 57 57 NNW 10 17 29.93 1013 10 16 0.00 0.00
7:58 pm 19:58 Clear 36 2.4 25 -4.1 63 63 NW 10 17 29.93 1014 10 16 0.00 0.00
8:58 pm 20:58 Clear 37 2.6 24 -4.5 60 60 W 10 17 29.92 1013 10 16 0.00 0.00
9:58 pm 21:58 Mostly Clear 36 2 23 -4.9 61 61 W 8 13 29.96 1014 10 16 0.00 0.00
10:58 pm 22:58 Clear 32 0.2 23 -4.9 69 69 W 8 13 29.98 1015 10 16 0.00 0.00
11:58 pm 23:58 Clear 31 -0.7 23 -5.1 72 72 SW 6 9 29.97 1015 10 16 0.00 0.00

Powered by AerisWeather